Back to catalog

STARLINK-5591

AliveCommunicationsVLEO
NORAD 55771·PAYLOAD·🇺🇸 United States

Launched Mar 3, 2023 from Vandenberg Space Force Base

Loading…

Next Passes (next 24 hours)

TLE

FreshSource: CelesTrak SupGP

Epoch: Sep 15, 2026, 01:40 UTC

1 55771C 23028AG  26258.06993056  .00010109  00000+0  84715-3 0  2587
2 55771  69.9998 106.9440 0002510 275.9343 345.4638 14.98327325    10

Track STARLINK-5591 in real time with AllMySat

Download on the App Store